KC9EGS Weather Reports


time (UTC)temp
C
wind
direction
speed
KPH
gust
KPH
rain 1hr
cm
rain 24hr
cm
rain mn
cm
humidity
%
barometer
mb
20260507224528 10 251 8.0 11.3 0.00 0.00 0.00 32 1004.8
20260507223528 10 243 6.4 11.3 0.00 0.00 0.00 30 1004.8
20260507223150 10 253 0.0 11.3 0.00 0.00 0.00 31 1004.8
20260507222529 10 247 3.2 11.3 0.00 0.00 0.00 32 1005.0
20260507221651 9 258 0.0 11.3 0.00 0.00 0.00 32 1005.0
20260507220529 9 282 0.0 11.3 0.00 0.00 0.00 31 1005.1
20260507220151 9 282 0.0 11.3 0.00 0.00 0.00 31 1005.1
20260507215529 9 282 0.0 25.7 0.00 0.00 0.00 31 1005.2
20260507214651 9 282 0.0 25.7 0.00 0.00 0.00 30 1005.2
20260507214527 9 282 0.0 25.7 0.00 0.00 0.00 30 1005.2
20260507213531 9 257 3.2 25.7 0.00 0.00 0.00 32 1005.2
20260507213151 9 309 1.6 25.7 0.00 0.00 0.00 31 1005.2
20260507212529 9 243 0.0 25.7 0.00 0.00 0.00 31 1005.2
20260507211650 9 267 0.0 25.7 0.00 0.00 0.00 30 1005.2
20260507210527 9 233 9.7 25.7 0.00 0.00 0.00 32 1005.2
20260507210149 9 247 8.0 25.7 0.00 0.00 0.00 32 1005.2
20260507205527 9 241 0.0 14.5 0.00 0.00 0.00 31 1005.4
20260507204651 9 287 8.0 14.5 0.00 0.00 0.00 33 1005.4
20260507204528 9 1 0.0 14.5 0.00 0.00 0.00 31 1005.4
20260507203528 9 234 8.0 14.5 0.00 0.00 0.00 30 1005.4
20260507203150 9 243 9.7 14.5 0.00 0.00 0.00 30 1005.4
20260507202528 8 243 0.0 14.5 0.00 0.00 0.00 33 1005.6
20260507201651 8 244 3.2 14.5 0.00 0.00 0.00 31 1005.6
20260507201528 8 250 4.8 14.5 0.00 0.00 0.00 32 1005.6
20260507200528 8 246 0.0 14.5 0.00 0.00 0.00 35 1006.0
20260507200150 8 236 8.0 14.5 0.00 0.00 0.00 34 1006.0
20260507194649 8 219 0.0 16.1 0.00 0.00 0.00 37 1006.0
20260507194527 8 226 1.6 16.1 0.00 0.00 0.00 40 1006.0
20260507193528 8 236 0.0 16.1 0.00 0.00 0.00 38 1006.1
20260507193149 8 222 0.0 16.1 0.00 0.00 0.00 37 1006.1
20260507192526 8 248 9.7 16.1 0.00 0.00 0.00 38 1006.2
20260507191650 8 239 0.0 16.1 0.00 0.00 0.00 40 1006.2
20260507191528 8 239 4.8 16.1 0.00 0.00 0.00 39 1006.2
20260507190529 7 257 0.0 16.1 0.00 0.00 0.00 38 1006.2
20260507190150 7 268 0.0 16.1 0.00 0.00 0.00 38 1006.2
20260507185529 7 212 0.0 12.9 0.00 0.00 0.00 41 1006.5
20260507184650 7 237 0.0 12.9 0.00 0.00 0.00 41 1006.5
20260507184528 7 237 0.0 12.9 0.00 0.00 0.00 42 1006.5
20260507183527 7 239 3.2 12.9 0.00 0.00 0.00 42 1006.7
20260507183150 7 247 12.9 12.9 0.00 0.00 0.00 42 1006.7
20260507182529 7 251 3.2 12.9 0.00 0.00 0.00 41 1006.7
20260507181650 7 236 1.6 12.9 0.00 0.00 0.00 43 1006.7
20260507181529 7 236 11.3 12.9 0.00 0.00 0.00 43 1006.7
20260507180150 7 239 3.2 12.9 0.00 0.00 0.00 48 1006.7
20260507175528 7 234 1.6 16.1 0.00 0.00 0.00 49 1006.7
20260507174650 7 248 0.0 16.1 0.00 0.00 0.00 45 1006.7
20260507174527 7 248 0.0 16.1 0.00 0.00 0.00 43 1006.7
20260507173526 7 226 0.0 16.1 0.00 0.00 0.00 41 1006.9
20260507173149 6 226 9.7 16.1 0.00 0.00 0.00 46 1006.9
20260507171649 6 0 0.0 16.1 0.00 0.00 0.00 55 1007.3
20260507171526 6 0 0.0 16.1 0.00 0.00 0.00 55 1007.3
20260507170528 6 240 1.6 16.1 0.00 0.00 0.00 48 1007.2
20260507170150 6 250 16.1 16.1 0.00 0.00 0.00 49 1007.2
20260507165528 6 256 8.0 19.3 0.00 0.00 0.00 54 1007.2
20260507164650 6 230 0.0 19.3 0.00 0.00 0.00 54 1007.2
20260507164527 6 247 1.6 19.3 0.00 0.00 0.00 54 1007.2
20260507163526 5 246 4.8 19.3 0.00 0.00 0.00 52 1007.5
20260507163149 6 241 4.8 19.3 0.00 0.00 0.00 54 1007.5
20260507162527 6 248 3.2 19.3 0.00 0.00 0.00 51 1007.6
20260507161650 6 246 0.0 19.3 0.00 0.00 0.00 48 1007.6
20260507161527 6 247 3.2 19.3 0.00 0.00 0.00 48 1007.6
20260507160528 6 239 8.0 19.3 0.00 0.00 0.00 49 1007.7
20260507160149 6 250 6.4 19.3 0.00 0.00 0.00 53 1007.7
20260507155528 6 232 0.0 14.5 0.00 0.00 0.00 54 1007.9
20260507154649 5 274 0.0 14.5 0.00 0.00 0.00 56 1007.9
20260507154527 5 244 0.0 14.5 0.00 0.00 0.00 54 1007.9
20260507153527 5 253 1.6 14.5 0.00 0.00 0.00 53 1008.0
20260507153149 5 258 0.0 14.5 0.00 0.00 0.00 53 1008.0
20260507152529 5 246 0.0 14.5 0.00 0.00 0.00 54 1008.0
20260507151649 5 241 8.0 14.5 0.00 0.00 0.00 56 1008.0
20260507151526 5 213 3.2 14.5 0.00 0.00 0.00 55 1008.0
20260507150527 5 244 8.0 14.5 0.00 0.00 0.00 55 1008.0
20260507150150 5 260 9.7 14.5 0.00 0.00 0.00 55 1008.0
20260507144651 5 244 0.0 9.7 0.00 0.00 0.00 54 1008.1
20260507144526 5 244 0.0 9.7 0.00 0.00 0.00 54 1008.1
20260507143150 5 239 1.6 9.7 0.00 0.00 0.00 59 1008.1
20260507142529 5 239 0.0 9.7 0.00 0.00 0.00 56 1008.3
20260507141649 5 253 0.0 9.7 0.00 0.00 0.00 60 1008.3
20260507141527 4 253 8.0 9.7 0.00 0.00 0.00 59 1008.3
20260507140526 4 256 8.0 9.7 0.00 0.00 0.00 62 1008.4
20260507140150 4 256 0.0 9.7 0.00 0.00 0.00 65 1008.4
20260507135528 3 256 0.0 11.3 0.00 0.00 0.00 64 1008.6
20260507134649 3 260 0.0 11.3 0.00 0.00 0.00 67 1008.6
20260507134527 3 260 0.0 11.3 0.00 0.00 0.00 67 1008.6
20260507133529 3 260 0.0 11.3 0.00 0.00 0.00 68 1008.6
20260507133149 3 260 0.0 11.3 0.00 0.00 0.00 67 1008.6
20260507131650 3 246 0.0 11.3 0.00 0.00 0.00 69 1008.6
20260507131526 3 246 0.0 11.3 0.00 0.00 0.00 69 1008.6
20260507130526 2 243 0.0 11.3 0.00 0.00 0.00 68 1008.9
20260507130149 2 243 3.2 11.3 0.00 0.00 0.00 67 1008.9
20260507124649 2 251 0.0 6.4 0.00 0.00 0.00 69 1008.8
20260507123150 2 236 0.0 6.4 0.00 0.00 0.00 69 1008.7
20260507122528 2 239 0.0 6.4 0.00 0.00 0.00 69 1008.7
20260507121650 2 243 0.0 6.4 0.00 0.00 0.00 69 1008.7
20260507120527 2 243 0.0 6.4 0.00 0.00 0.00 71 1008.6
20260507120150 2 243 0.0 6.4 0.00 0.00 0.00 70 1008.6
20260507114650 2 243 0.0 8.0 0.00 0.00 0.00 70 1008.6
20260507114527 2 243 0.0 8.0 0.00 0.00 0.00 70 1008.6
20260507113527 2 215 0.0 8.0 0.00 0.00 0.00 70 1008.5
20260507113149 2 215 0.0 8.0 0.00 0.00 0.00 70 1008.5
20260507111650 2 224 0.0 8.0 0.00 0.00 0.00 69 1008.3
20260507111526 2 205 0.0 8.0 0.00 0.00 0.00 69 1008.3
20260507110525 2 224 0.0 8.0 0.00 0.00 0.00 69 1008.3
20260507110150 2 226 0.0 8.0 0.00 0.00 0.00 69 1008.3
20260507105528 2 229 0.0 9.7 0.00 0.00 0.00 68 1008.1
20260507104649 2 229 0.0 9.7 0.00 0.00 0.00 67 1008.1
20260507104526 2 233 0.0 9.7 0.00 0.00 0.00 67 1008.1
20260507103528 2 237 0.0 9.7 0.00 0.00 0.00 67 1008.3
20260507103149 2 244 0.0 9.7 0.00 0.00 0.00 67 1008.3
20260507102528 2 246 0.0 9.7 0.00 0.00 0.00 67 1008.3
20260507101649 2 248 0.0 9.7 0.00 0.00 0.00 68 1008.3
20260507101527 2 248 0.0 9.7 0.00 0.00 0.00 68 1008.3
20260507100526 2 247 0.0 9.7 0.00 0.00 0.00 67 1008.2
20260507100150 2 247 0.0 9.7 0.00 0.00 0.00 66 1008.2
20260507095528 2 247 0.0 11.3 0.00 0.00 0.00 66 1008.2
20260507094649 2 248 0.0 11.3 0.00 0.00 0.00 66 1008.2
20260507094527 2 248 4.8 11.3 0.00 0.00 0.00 66 1008.2
20260507093526 2 250 0.0 11.3 0.00 0.00 0.00 66 1008.2
20260507093150 2 250 0.0 11.3 0.00 0.00 0.00 66 1008.2
20260507091650 2 248 0.0 11.3 0.00 0.00 0.00 66 1008.3
20260507091526 2 248 0.0 11.3 0.00 0.00 0.00 65 1008.3
20260507090526 2 248 0.0 11.3 0.00 0.00 0.00 65 1008.3
20260507090148 2 248 0.0 11.3 0.00 0.00 0.00 64 1008.3
20260507084648 2 248 0.0 11.3 0.00 0.00 0.00 65 1008.4
20260507083525 2 246 0.0 11.3 0.00 0.00 0.00 64 1008.4
20260507083149 2 241 0.0 11.3 0.00 0.00 0.00 65 1008.4
20260507081650 2 240 0.0 11.3 0.00 0.00 0.00 65 1008.4
20260507080526 2 243 0.0 11.3 0.00 0.00 0.00 65 1008.4
20260507080149 2 243 0.0 11.3 0.00 0.00 0.00 64 1008.4
20260507075526 2 244 0.0 12.9 0.00 0.00 0.00 64 1008.5
20260507074649 2 244 11.3 12.9 0.00 0.00 0.00 64 1008.5
20260507074526 2 240 3.2 12.9 0.00 0.00 0.00 64 1008.5
20260507073525 3 241 4.8 12.9 0.00 0.00 0.00 64 1008.5
20260507073150 3 241 4.8 12.9 0.00 0.00 0.00 65 1008.5
20260507072525 3 239 0.0 12.9 0.00 0.00 0.00 64 1008.6
20260507071650 3 229 1.6 12.9 0.00 0.00 0.00 64 1008.6
20260507071527 3 243 0.0 12.9 0.00 0.00 0.00 64 1008.6
20260507070526 3 243 0.0 12.9 0.00 0.00 0.00 63 1008.9
20260507070149 3 243 4.8 12.9 0.00 0.00 0.00 63 1008.9
20260507064649 3 246 0.0 11.3 0.00 0.00 0.00 63 1008.9
20260507064526 3 247 6.4 11.3 0.00 0.00 0.00 63 1008.9
20260507063149 3 246 0.0 11.3 0.00 0.00 0.00 64 1009.0
20260507061648 3 247 0.0 11.3 0.00 0.00 0.00 62 1009.1
20260507061525 3 247 9.7 11.3 0.00 0.00 0.00 63 1009.1
20260507060530 3 247 9.7 11.3 0.00 0.00 0.00 63 1009.2
20260507060149 3 241 0.0 11.3 0.00 0.00 0.00 64 1009.2
20260507055527 3 241 8.0 12.9 0.00 0.00 0.00 64 1009.4
20260507054648 3 243 0.0 12.9 0.00 0.00 0.00 63 1009.4
20260507054526 3 241 0.0 12.9 0.00 0.00 0.00 63 1009.4
20260507053527 3 244 0.0 12.9 0.00 0.00 0.00 62 1009.5
20260507053148 3 243 0.0 12.9 0.00 0.00 0.00 63 1009.5
20260507051649 3 241 0.0 12.9 0.00 0.00 0.00 61 1009.6
20260507051526 3 241 0.0 12.9 0.00 0.00 0.00 61 1009.6
20260507050526 3 241 0.0 12.9 0.00 0.00 0.00 62 1009.8
20260507050149 3 241 0.0 12.9 0.00 0.00 0.00 62 1009.8
20260507044648 3 239 0.0 4.8 0.00 0.00 0.00 62 1009.8
20260507044525 3 239 4.8 4.8 0.00 0.00 0.00 62 1009.8
20260507043526 3 234 0.0 4.8 0.00 0.00 0.00 62 1009.8
20260507043150 3 234 0.0 4.8 0.00 0.00 0.00 62 1009.8
20260507042527 3 240 0.0 4.8 0.00 0.00 0.00 62 1009.8
20260507041649 3 240 0.0 4.8 0.00 0.00 0.00 62 1009.8
20260507041527 3 251 0.0 4.8 0.00 0.00 0.00 62 1009.8
20260507040526 3 247 0.0 4.8 0.00 0.00 0.00 60 1009.9
20260507040149 3 247 0.0 4.8 0.00 0.00 0.00 60 1009.9
20260507034649 3 248 0.0 8.0 0.00 0.00 0.00 60 1009.9
20260507034525 3 248 0.0 8.0 0.00 0.00 0.00 60 1009.9
20260507033525 3 248 0.0 8.0 0.00 0.00 0.00 60 1009.9
20260507033149 4 248 0.0 8.0 0.00 0.00 0.00 59 1009.9
20260507032526 4 248 0.0 8.0 0.00 0.00 0.00 59 1009.9
20260507031649 4 243 0.0 8.0 0.00 0.00 0.00 58 1009.9
20260507031526 4 243 3.2 8.0 0.00 0.00 0.00 57 1009.9
20260507030526 4 244 0.0 8.0 0.00 0.00 0.00 58 1010.2
20260507030149 4 244 0.0 8.0 0.00 0.00 0.00 57 1010.2
20260507024648 4 246 0.0 12.9 0.00 0.00 0.00 57 1010.1
20260507024525 4 246 0.0 12.9 0.00 0.00 0.00 56 1010.1
20260507023527 4 247 0.0 12.9 0.00 0.00 0.00 57 1010.1
20260507023149 4 247 0.0 12.9 0.00 0.00 0.00 56 1010.1
20260507022525 4 247 0.0 12.9 0.00 0.00 0.00 57 1010.1
20260507021649 4 247 0.0 12.9 0.00 0.00 0.00 55 1010.1
20260507021526 4 247 0.0 12.9 0.00 0.00 0.00 55 1010.1
20260507020525 4 248 0.0 12.9 0.00 0.00 0.00 54 1010.2
20260507020149 4 248 0.0 12.9 0.00 0.00 0.00 55 1010.2
20260507015527 4 241 0.0 9.7 0.00 0.00 0.00 55 1010.2
20260507014649 4 240 0.0 9.7 0.00 0.00 0.00 55 1010.2
20260507014525 4 240 0.0 9.7 0.00 0.00 0.00 54 1010.2
20260507013526 4 239 8.0 9.7 0.00 0.00 0.00 54 1010.1
20260507013149 4 226 0.0 9.7 0.00 0.00 0.00 54 1010.1
20260507011648 4 246 0.0 9.7 0.00 0.00 0.00 53 1010.0
20260507010526 4 246 0.0 9.7 0.00 0.00 0.00 52 1010.0
20260507010148 4 246 0.0 9.7 0.00 0.00 0.00 53 1010.0
20260507005526 4 246 0.0 16.1 0.00 0.00 0.00 52 1010.0
20260507004649 4 246 0.0 16.1 0.00 0.00 0.00 52 1010.0
20260507004526 4 246 0.0 16.1 0.00 0.00 0.00 54 1010.0
20260507003528 4 243 1.6 16.1 0.00 0.00 0.00 53 1009.9
20260507003148 4 244 0.0 16.1 0.00 0.00 0.00 52 1009.9
20260507001648 4 232 0.0 16.1 0.00 0.00 0.00 51 1010.0
20260507001525 4 232 0.0 16.1 0.00 0.00 0.00 51 1010.0
20260507000526 4 246 0.0 16.1 0.00 0.00 0.00 51 1010.1
20260507000148 4 246 0.0 16.1 0.00 0.00 0.00 51 1010.1
20260506234649 4 241 0.0 20.9 0.00 0.00 0.00 51 1010.1
20260506233526 4 251 0.0 20.9 0.00 0.00 0.00 51 1010.2
20260506233148 4 254 9.7 20.9 0.00 0.00 0.00 52 1010.2
20260506232526 4 319 0.0 20.9 0.00 0.00 0.00 51 1010.2
20260506231647 4 243 0.0 20.9 0.00 0.00 0.00 52 1010.2
20260506231525 4 243 0.0 20.9 0.00 0.00 0.00 51 1010.2
20260506230526 5 258 8.0 20.9 0.00 0.00 0.00 50 1010.2
20260506230148 5 333 0.0 20.9 0.00 0.00 0.00 50 1010.2
20260506225525 5 353 3.2 25.7 0.00 0.00 0.00 51 1010.2
20260506224648 5 263 6.4 25.7 0.00 0.00 0.00 51 1010.2